Location: Caltech
(34.1382°N, 118.1253°W)
Time: 01:45:05
(UTC-07:00)

FO-29 - Visible Passes

Search period start: 27 April 2018 00:00
Search period end: 07 May 2018 00:00
Orbit: 801 x 1321 km, 98.5° (Epoch: 26 April)

Date Brightness Start Highest point End Pass type
(mag) Time Alt. Az. Time Alt. Az. Time Alt. Az.
27 Apr 9.8 19:54:32 10° NNE 20:01:27 57° E 20:07:30 10° S visible
27 Apr 12.1 21:40:40 10° NNW 21:45:46 22° WNW 21:50:30 10° WSW visible
28 Apr 10.4 20:44:35 10° N 20:51:26 57° WNW 20:57:27 10° SSW visible
29 Apr 12.0 21:35:41 10° NNW 21:40:52 23° WNW 21:45:38 10° WSW visible
30 Apr 10.2 20:39:42 10° N 20:46:28 61° WNW 20:52:26 10° SSW visible
01 May 11.9 21:30:43 10° NNW 21:35:58 24° WNW 21:40:46 10° WSW visible
02 May 10.1 20:34:49 10° N 20:41:30 66° WNW 20:47:23 10° SSW visible
03 May 11.8 21:25:45 10° NNW 21:31:03 26° WNW 21:35:52 10° WSW visible
04 May 9.9 20:29:55 10° N 20:36:32 71° WNW 20:42:19 10° SSW visible
05 May 11.7 21:20:47 10° N 21:26:06 27° WNW 21:30:56 10° WSW visible
06 May 9.8 20:25:02 10° N 20:31:33 76° WNW 20:37:15 10° SSW visible
